| time (UTC) | temp F | wind direction | speed knots | gust knots | rain 1hr in | rain 24hr in | rain mn in | humidity % | barometer mb |
| 20260509154555 | 64 | 131 | 1.7 | 7.0 | 0.00 | 0.00 | 0.00 | 86 | 1013.2 |
| 20260509153100 | 66 | 167 | 1.7 | 4.3 | 0.00 | 0.00 | 0.00 | 85 | 1013.5 |
| 20260509151551 | 66 | 128 | 2.6 | 6.1 | 0.00 | 0.00 | 0.00 | 82 | 1013.7 |
| 20260509150052 | 66 | 152 | 1.7 | 5.2 | 0.00 | 0.00 | 0.00 | 82 | 1013.6 |
| 20260509144553 | 67 | 117 | 0.9 | 7.8 | 0.00 | 0.00 | 0.00 | 79 | 1013.7 |
| 20260509143055 | 68 | 73 | 1.7 | 9.6 | 0.00 | 0.00 | 0.00 | 80 | 1013.7 |
| 20260509141559 | 67 | 113 | 0.9 | 4.3 | 0.00 | 0.00 | 0.00 | 83 | 1013.8 |
| 20260509134554 | 65 | 141 | 1.7 | 4.3 | 0.00 | 0.00 | 0.00 | 85 | 1013.6 |
| 20260509133054 | 64 | 0 | 1.7 | 7.0 | 0.00 | 0.00 | 0.00 | 86 | 1013.6 |
| 20260509131555 | 63 | 144 | 0.9 | 3.5 | 0.00 | 0.00 | 0.00 | 88 | 1013.8 |
| 20260509130107 | 62 | 130 | 1.7 | 5.2 | 0.00 | 0.00 | 0.00 | 88 | 1013.9 |
| 20260509124555 | 61 | 143 | 0.9 | 3.5 | 0.00 | 0.00 | 0.00 | 89 | 1014.0 |
| 20260509123053 | 61 | 131 | 0.9 | 5.2 | 0.00 | 0.00 | 0.00 | 89 | 1013.8 |
| 20260509121616 | 60 | 128 | 0.9 | 3.5 | 0.00 | 0.00 | 0.00 | 90 | 1013.9 |
| 20260509120056 | 60 | 127 | 0.9 | 2.6 | 0.00 | 0.00 | 0.00 | 91 | 1013.9 |
| 20260509114600 | 59 | 139 | 0.0 | 3.5 | 0.00 | 0.00 | 0.00 | 90 | 1014.2 |
| 20260509113058 | 59 | 150 | 0.0 | 6.1 | 0.00 | 0.00 | 0.00 | 90 | 1014.2 |
| 20260509111559 | 58 | 161 | 0.9 | 4.3 | 0.00 | 0.00 | 0.00 | 91 | 1014.3 |
| 20260509110100 | 57 | 139 | 0.0 | 2.6 | 0.00 | 0.00 | 0.00 | 92 | 1014.2 |
| 20260509104555 | 57 | 129 | 0.9 | 2.6 | 0.00 | 0.00 | 0.00 | 92 | 1014.2 |
| 20260509103101 | 57 | 143 | 0.9 | 1.7 | 0.00 | 0.00 | 0.00 | 92 | 1014.2 |
| 20260509101601 | 57 | 115 | 0.0 | 1.7 | 0.00 | 0.00 | 0.00 | 91 | 1014.2 |
| 20260509100051 | 57 | 121 | 0.0 | 4.3 | 0.00 | 0.00 | 0.00 | 91 | 1014.1 |
| 20260509094604 | 57 | 139 | 0.9 | 6.1 | 0.00 | 0.00 | 0.00 | 92 | 1014.1 |
| 20260509093054 | 57 | 107 | 0.0 | 1.7 | 0.00 | 0.00 | 0.00 | 92 | 1014.0 |
| 20260509091551 | 57 | 0 | 0.9 | 3.5 | 0.00 | 0.00 | 0.00 | 91 | 1013.8 |
| 20260509090059 | 57 | 0 | 0.0 | 1.7 | 0.00 | 0.00 | 0.00 | 90 | 1013.9 |
| 20260509084559 | 57 | 99 | 0.9 | 3.5 | 0.00 | 0.00 | 0.00 | 90 | 1014.0 |
| 20260509083101 | 56 | 145 | 0.0 | 4.3 | 0.00 | 0.00 | 0.00 | 89 | 1014.0 |
| 20260509081550 | 56 | 111 | 0.9 | 2.6 | 0.00 | 0.00 | 0.00 | 89 | 1014.0 |
| 20260509080056 | 56 | 85 | 0.0 | 4.3 | 0.00 | 0.00 | 0.00 | 88 | 1014.0 |
| 20260509074553 | 56 | 106 | 0.0 | 2.6 | 0.00 | 0.00 | 0.00 | 88 | 1014.3 |
| 20260509073052 | 56 | 123 | 0.9 | 2.6 | 0.00 | 0.00 | 0.00 | 86 | 1014.5 |
| 20260509071552 | 56 | 0 | 0.0 | 2.6 | 0.00 | 0.00 | 0.00 | 86 | 1014.3 |
| 20260509070057 | 56 | 101 | 0.9 | 1.7 | 0.00 | 0.00 | 0.00 | 85 | 1014.3 |
| 20260509064554 | 56 | 153 | 0.0 | 2.6 | 0.00 | 0.00 | 0.00 | 84 | 1014.2 |
| 20260509063100 | 56 | 132 | 0.0 | 3.5 | 0.00 | 0.00 | 0.00 | 82 | 1014.3 |
| 20260509061555 | 56 | 143 | 0.0 | 3.5 | 0.00 | 0.00 | 0.00 | 81 | 1014.3 |
| 20260509060107 | 56 | 0 | 0.9 | 4.3 | 0.00 | 0.00 | 0.00 | 79 | 1014.5 |
| 20260509054551 | 56 | 110 | 0.0 | 5.2 | 0.00 | 0.00 | 0.00 | 77 | 1014.4 |
| 20260509053112 | 56 | 131 | 0.9 | 2.6 | 0.00 | 0.00 | 0.00 | 76 | 1014.4 |
| 20260509051554 | 56 | 168 | 0.9 | 4.3 | 0.00 | 0.00 | 0.00 | 76 | 1014.5 |
| 20260509050049 | 56 | 98 | 0.9 | 4.3 | 0.00 | 0.00 | 0.00 | 76 | 1014.7 |
| 20260509044626 | 56 | 167 | 0.9 | 2.6 | 0.00 | 0.00 | 0.00 | 77 | 1014.6 |
| 20260509043138 | 56 | 0 | 0.9 | 6.1 | 0.00 | 0.00 | 0.00 | 74 | 1014.7 |
| 20260509041550 | 56 | 98 | 0.9 | 7.0 | 0.00 | 0.00 | 0.00 | 77 | 1014.9 |
| 20260509040052 | 56 | 162 | 0.9 | 4.3 | 0.00 | 0.00 | 0.00 | 79 | 1015.1 |
| 20260509034557 | 56 | 151 | 0.0 | 6.1 | 0.00 | 0.00 | 0.00 | 79 | 1015.0 |
| 20260509033055 | 56 | 123 | 0.9 | 6.1 | 0.00 | 0.00 | 0.00 | 78 | 1015.1 |
| 20260509031602 | 56 | 134 | 0.9 | 2.6 | 0.00 | 0.00 | 0.00 | 76 | 1015.2 |
| 20260509030110 | 56 | 131 | 0.9 | 3.5 | 0.00 | 0.00 | 0.00 | 73 | 1015.0 |
| 20260509024558 | 56 | 96 | 0.0 | 1.7 | 0.00 | 0.00 | 0.00 | 74 | 1015.0 |
| 20260509023057 | 56 | 115 | 0.9 | 1.7 | 0.00 | 0.00 | 0.00 | 78 | 1015.0 |
| 20260509021555 | 55 | 160 | 0.0 | 2.6 | 0.00 | 0.00 | 0.00 | 78 | 1015.1 |
| 20260509014555 | 56 | 0 | 0.0 | 5.2 | 0.00 | 0.00 | 0.00 | 76 | 1015.0 |
| 20260509013059 | 55 | 117 | 0.0 | 2.6 | 0.00 | 0.00 | 0.00 | 76 | 1014.8 |
| 20260509011557 | 56 | 0 | 0.9 | 2.6 | 0.00 | 0.00 | 0.00 | 75 | 1014.9 |
| 20260509010054 | 56 | 127 | 0.0 | 3.5 | 0.00 | 0.00 | 0.00 | 76 | 1014.9 |
| 20260509004603 | 56 | 141 | 0.9 | 2.6 | 0.00 | 0.00 | 0.00 | 78 | 1014.7 |
| 20260509003058 | 56 | 159 | 0.9 | 3.5 | 0.00 | 0.00 | 0.00 | 77 | 1014.5 |
| 20260509001552 | 56 | 140 | 0.9 | 1.7 | 0.00 | 0.00 | 0.00 | 75 | 1014.5 |
| 20260508234557 | 58 | 82 | 0.9 | 4.3 | 0.00 | 0.02 | 0.00 | 71 | 1014.3 |
| 20260508233057 | 58 | 134 | 1.7 | 4.3 | 0.00 | 0.02 | 0.00 | 71 | 1014.2 |
| 20260508231555 | 60 | 134 | 0.9 | 3.5 | 0.00 | 0.02 | 0.00 | 71 | 1014.2 |
| 20260508230054 | 61 | 157 | 0.9 | 3.5 | 0.00 | 0.02 | 0.00 | 68 | 1014.1 |
| 20260508224635 | 61 | 117 | 0.9 | 6.1 | 0.00 | 0.09 | 0.00 | 66 | 1014.1 |
| 20260508223055 | 62 | 143 | 2.6 | 7.0 | 0.00 | 0.09 | 0.00 | 64 | 1014.1 |
| 20260508221554 | 62 | 130 | 0.9 | 9.6 | 0.00 | 0.09 | 0.00 | 63 | 1014.0 |
| 20260508220057 | 63 | 134 | 0.9 | 5.2 | 0.00 | 0.09 | 0.00 | 59 | 1013.9 |
| 20260508214552 | 63 | 116 | 1.7 | 7.0 | 0.00 | 0.11 | 0.00 | 61 | 1013.9 |
| 20260508213054 | 64 | 129 | 2.6 | 8.7 | 0.00 | 0.11 | 0.00 | 59 | 1013.9 |
| 20260508211557 | 63 | 148 | 1.7 | 9.6 | 0.00 | 0.11 | 0.00 | 60 | 1013.8 |
| 20260508210056 | 64 | 211 | 0.9 | 7.0 | 0.00 | 0.11 | 0.00 | 63 | 1014.0 |
| 20260508204555 | 63 | 172 | 0.9 | 10.4 | 0.00 | 0.11 | 0.00 | 62 | 1014.1 |
| 20260508203103 | 64 | 42 | 0.9 | 8.7 | 0.00 | 0.11 | 0.00 | 61 | 1014.0 |
| 20260508201602 | 65 | 58 | 0.9 | 4.3 | 0.00 | 0.11 | 0.00 | 55 | 1014.0 |
| 20260508200054 | 64 | 142 | 1.7 | 5.2 | 0.00 | 0.11 | 0.00 | 59 | 1014.1 |
| 20260508194553 | 64 | 139 | 0.9 | 6.1 | 0.00 | 0.11 | 0.00 | 58 | 1014.2 |
| 20260508193100 | 64 | 165 | 1.7 | 7.8 | 0.00 | 0.11 | 0.00 | 59 | 1014.2 |
| 20260508191555 | 63 | 91 | 1.7 | 4.3 | 0.00 | 0.11 | 0.00 | 56 | 1014.2 |
| 20260508190051 | 62 | 125 | 2.6 | 8.7 | 0.00 | 0.11 | 0.00 | 56 | 1014.4 |
| 20260508184556 | 62 | 149 | 2.6 | 8.7 | 0.00 | 0.11 | 0.00 | 56 | 1014.9 |
| 20260508183053 | 63 | 157 | 1.7 | 7.0 | 0.00 | 0.11 | 0.00 | 55 | 1014.7 |
| 20260508181556 | 63 | 75 | 2.6 | 6.1 | 0.00 | 0.11 | 0.00 | 51 | 1014.9 |
| 20260508180056 | 63 | 148 | 1.7 | 7.8 | 0.00 | 0.11 | 0.00 | 52 | 1015.2 |
| 20260508174558 | 63 | 221 | 0.9 | 3.5 | 0.00 | 0.11 | 0.00 | 56 | 1015.2 |
| 20260508173054 | 63 | 193 | 1.7 | 6.1 | 0.00 | 0.11 | 0.00 | 53 | 1015.4 |
| 20260508171555 | 64 | 110 | 1.7 | 6.1 | 0.00 | 0.11 | 0.00 | 51 | 1015.6 |
| 20260508170100 | 65 | 194 | 0.0 | 3.5 | 0.00 | 0.11 | 0.00 | 54 | 1015.3 |
| 20260508164554 | 64 | 77 | 1.7 | 7.0 | 0.00 | 0.11 | 0.00 | 58 | 1015.5 |
| 20260508163055 | 64 | 326 | 1.7 | 6.1 | 0.00 | 0.11 | 0.00 | 53 | 1015.8 |
| 20260508161600 | 64 | 349 | 0.0 | 4.3 | 0.00 | 0.11 | 0.00 | 41 | 1015.9 |
| 20260508160055 | 63 | 11 | 1.7 | 7.0 | 0.00 | 0.11 | 0.00 | 42 | 1015.9 |